Tracking 35275 objects as of 8-Sep-2026
HD Live streaming from Space Station
objects crossing your sky now

STARLINK-32681

Track STARLINK-32681 now!
10-day predictions
STARLINK-32681 is classified as:


NORAD ID: 62506
Int'l Code: 2025-003V
Launch date: January 6, 2025
Source: United States (US)
Launch site: AIR FORCE EASTERN TEST RANGE (AFETR)
Your satellite tracking list
Your tracking list is empty




NASA's NSSDC Master Catalog

Two Line Element Set (TLE):
1 62506U 25003V   26250.48087530  .00005981  00000-0  22669-3 0  9990
2 62506  43.0029 323.7631 0001708 278.6660  81.3998 15.27580612 94687
Source of the keplerian elements: AFSPC